COSMOS 1992

Satellite information

Favourite Embed

Satellite Type and Status

PAYLOADIN ORBIT

Key statistics

Satellite COSMOS 1992 at a glance.

Uptime

13365

Days in orbit

Revolutions

≈ 14.4

Per day

Orbit

LEO

Low Earth Orbit

Inclination

74.0

Latest

Satellite identification and parameters

Extended collection of information and parameters for COSMOS 1992.

Object identification

Identified? True

Debris? False

Object name: COSMOS 1992

International designator: 1989-005A

Object number (NORAD): 19769

Object ID (CCSDS): 19769

Country: COMMONWEALTH OF INDEPENDENT STATES (CIS)

Current information (Y/N): Y

RCS size: LARGE

Orbital parameters

Period: 100.299 minutes

Inclination: 74.0451 deg

SMA: 7150.842 km

Apoapsis: 788.756 km

Periapsis: 756.658 km

RAAN: 64.4844 deg

Eccentricy: 0.0022444

Argument of periapsis: 340.1428 deg

Mean anomaly: 19.8848 deg

Mean motion: 14.3571089 rev/day

Mean motion (dot): 0.00000165 rev/day2

B* drag term: 0.00006598145 1/REarth

Two-line elements (TLE)

Creation date: Aug. 29, 2025, 2:15 a.m.

Reference frame: TEME

Reference center: EARTH

Epoch: Aug. 28, 2025, 9:27 p.m. UTC

TLE line 0: 0 COSMOS 1992

TLE line 1: 1 19769U 89005A 25240.89423224 .00000165 00000-0 65981-4 0 9996

TLE line 2: 2 19769 74.0451 64.4844 0022444 340.1428 19.8848 14.35710890914890

Live tracking on map

Real-time ground track for satellite COSMOS 1992.

In-orbit conjunctions

A list of the most updated potential collisions computed for object COSMOS 1992.

Target Orbit TCA Probability of collision Miss distance Type
CZ-3C DEB MEO 2025-08-13 08:33:23 0.0001734927 565.0 (m) DEBRIS
FENGYUN 1C DEB SSO 2025-07-24 01:36:55 0.0001458407 202.0 (m) DEBRIS
FENGYUN 1C DEB SSO 2025-05-26 04:31:23 0.0006102453 492.0 (m) DEBRIS
COSMOS 1867 COOLANT LEO 2025-04-19 19:46:25 0.0008016404 363.0 (m) DEBRIS
FENGYUN 1C DEB SSO 2025-03-25 21:26:15 0.000192273 285.0 (m) DEBRIS

Associated space launch

Military communications satellite

COSMOS 1992 was lifted into orbit during the mission ‘Kosmos-3M | Strela-2M 46’, on board a Kosmos-3M space rocket.

The launch took place on Jan. 26, 1989, 3:36 p.m. from 132/2.

For more information about the launch, click the button.

Launch to space Kosmos-3M | Strela-2M 46
Kosmos-3M | Strela-2M 46

Agency: N/A

Status: Launch Successful

Launch date: Jan. 26, 1989, 3:36 p.m. UTC

Rocket: Kosmos-3M

Launch pad: 132/2

Location: Plesetsk Cosmodrome, Russian Federation

...

Latest news about this satellite

There are no fresh news available about this satellite. Check back as we update our databases every day.


Newsletter sign-up

Weekly statistics, charts and insights to help you stay on top of the space industry.